Whiting Fld NAS, FL

12:14 AM CST on November 21, 2019 (GMT -0600)
Whiting Field Naval Air Station (North)

Weather History for KNSE - September, 2019

Change the Weather History Date:

Saturday, September 14, 2019

  Actual Average Record
Temperature  
Mean Temperature 80 °F -  
Max Temperature 93 °F 84 °F 93 °F (2010)
Min Temperature 68 °F 67 °F 52 °F (2015)
Cooling Degree Days 16    
Growing Degree Days 30 (Base 50)    
Moisture  
Dew Point 68 °F    
Average Humidity 60    
Maximum Humidity 93    
Minimum Humidity 39    
Precipitation  
Precipitation 0.00 in - - ()
Sea Level Pressure  
Sea Level Pressure 30.04 in    
Wind  
Wind Speed 6 mph (ENE)    
Max Wind Speed 12 mph    
Max Gust Speed 17 mph    
Visibility 10 miles    
Events      
Averages and records for this station are not official NWS values.
T = Trace of Precipitation, MM = Missing Value Source: NWS Daily Summary

Daily Weather History Graph

Daily Weather History Graph

Search for Another Location

Airport or City:

Astronomy

Sep. 14, 2019 Rise Set
Actual Time 6:31 AM CDT 6:55 PM CDT
Civil Twilight 6:07 AM CDT 7:19 PM CDT
Nautical Twilight 5:39 AM CDT 7:47 PM CDT
Astronomical Twilight 5:10 AM CDT 8:16 PM CDT
Moon 7:35 PM CDT (9/14) 6:47 AM CDT (9/14)
Length of Visible Light 13h 11m
Length of Day
12h 23m
Full, 100% of the Moon is Illuminated
Sep 14
Full
Sep 21
Last Quarter
Sep 28
New
Oct 5
First Quarter
Oct 13
Full

Hourly Weather History & Observations

Time (CDT) Temp. Heat Index Dew Point Humidity Pressure Visibility Wind Dir Wind Speed Gust Speed Precip Events Conditions
12:56 AM 69.1 °F - - N/A% 30.04 in 10.0 mi ENE 3.5 mph - N/A   Clear
1:56 AM 72.0 °F - - N/A% 30.05 in 10.0 mi NE 4.6 mph - N/A   Clear
2:56 AM 70.0 °F - - N/A% 30.04 in 10.0 mi ENE 3.5 mph - N/A   Clear
3:56 AM 68.0 °F - - N/A% 30.03 in 10.0 mi ENE 4.6 mph - N/A   Clear
4:56 AM 70.0 °F - - N/A% 30.03 in 10.0 mi ENE 4.6 mph - N/A   Clear
5:56 AM 69.1 °F - - N/A% 30.05 in 10.0 mi NE 4.6 mph - N/A   Clear
6:56 AM 69.1 °F - 66.9 °F 93% 30.06 in 10.0 mi ENE 4.6 mph - N/A   Mostly Cloudy
7:56 AM 72.0 °F - 69.1 °F 91% 30.09 in 10.0 mi NE 5.8 mph - N/A   Mostly Cloudy
8:56 AM 78.1 °F - 71.1 °F 79% 30.10 in 10.0 mi ENE 6.9 mph - N/A   Mostly Cloudy
9:56 AM 82.9 °F 88.8 °F 73.0 °F 72% 30.10 in 10.0 mi ENE 6.9 mph - N/A   Mostly Cloudy
10:56 AM 86.0 °F 92.2 °F 72.0 °F 63% 30.09 in 10.0 mi East 11.5 mph - N/A   Mostly Cloudy
11:56 AM 88.0 °F 92.9 °F 70.0 °F 55% 30.08 in 10.0 mi ENE 9.2 mph 17.3 mph N/A   Mostly Cloudy
12:56 PM 91.0 °F 95.2 °F 68.0 °F 47% 30.06 in 10.0 mi East 9.2 mph 17.3 mph N/A   Mostly Cloudy
1:56 PM 93.0 °F 95.9 °F 66.0 °F 41% 30.03 in 10.0 mi ENE 9.2 mph 17.3 mph N/A   Scattered Clouds
2:56 PM 93.0 °F 95.0 °F 64.9 °F 39% 30.01 in 10.0 mi ESE 11.5 mph - N/A   Scattered Clouds
3:56 PM 93.0 °F 95.9 °F 66.0 °F 41% 30.00 in 10.0 mi East 11.5 mph 17.3 mph N/A   Scattered Clouds
4:56 PM 91.0 °F 94.3 °F 66.9 °F 45% 29.99 in 10.0 mi East 10.4 mph 17.3 mph N/A   Scattered Clouds
5:56 PM 89.1 °F 92.9 °F 68.0 °F 50% 29.99 in 10.0 mi ENE 6.9 mph - N/A   Mostly Cloudy
6:56 PM 86.0 °F - - N/A% 29.99 in 10.0 mi Variable 5.8 mph - N/A   Clear
7:56 PM 82.0 °F - - N/A% 30.00 in 10.0 mi NE 3.5 mph - N/A   Clear
8:56 PM 81.0 °F - - N/A% 30.01 in 10.0 mi NE 4.6 mph - N/A   Clear
9:56 PM 79.0 °F - - N/A% 30.03 in 10.0 mi ENE 5.8 mph - N/A   Clear
10:56 PM 78.1 °F - - N/A% 30.03 in 10.0 mi NE 4.6 mph - N/A   Clear
11:56 PM 77.0 °F - - N/A% 30.02 in 10.0 mi ENE 3.5 mph - N/A   Clear